TimeEST,TemperatureF,Dew PointF,Humidity,Sea Level PressureIn,VisibilityMPH,Wind Direction,Wind SpeedMPH,Gust SpeedMPH,PrecipitationIn,Events,Conditions,WindDirDegrees,DateUTC
12:54 AM,32.0,28.9,88,30.37,10.0,Calm,Calm,-,N/A,,Clear,0,2013-02-10 05:54:00
1:54 AM,30.9,27.0,85,30.38,10.0,Calm,Calm,-,N/A,,Clear,0,2013-02-10 06:54:00
2:54 AM,30.0,27.0,88,30.38,10.0,Calm,Calm,-,N/A,,Clear,0,2013-02-10 07:54:00
3:54 AM,30.9,28.0,89,30.38,10.0,Calm,Calm,-,N/A,,Clear,0,2013-02-10 08:54:00
4:54 AM,28.9,27.0,92,30.38,9.0,Calm,Calm,-,N/A,,Clear,0,2013-02-10 09:54:00
5:54 AM,28.9,27.0,92,30.40,9.0,Calm,Calm,-,N/A,,Clear,0,2013-02-10 10:54:00
6:54 AM,28.9,27.0,92,30.42,8.0,Calm,Calm,-,N/A,,Unknown,0,2013-02-10 11:54:00
7:54 AM,33.1,28.0,82,30.45,10.0,Calm,Calm,-,N/A,,Clear,0,2013-02-10 12:54:00
8:54 AM,37.9,27.0,65,30.46,10.0,ENE,4.6,-,N/A,,Clear,70,2013-02-10 13:54:00
9:54 AM,44.1,28.9,55,30.48,10.0,ESE,8.1,-,N/A,,Clear,120,2013-02-10 14:54:00
10:54 AM,48.0,27.0,44,30.46,10.0,East,8.1,-,N/A,,Clear,100,2013-02-10 15:54:00
11:54 AM,51.1,26.1,38,30.45,10.0,East,5.8,-,N/A,,Clear,100,2013-02-10 16:54:00
1:54 PM,57.0,33.1,40,30.37,10.0,SSE,5.8,-,N/A,,Clear,150,2013-02-10 18:54:00
2:54 PM,57.9,37.0,46,30.34,10.0,Variable,5.8,-,N/A,,Clear,0,2013-02-10 19:54:00
3:54 PM,57.9,39.0,49,30.32,10.0,SE,5.8,-,N/A,,Mostly Cloudy,140,2013-02-10 20:54:00
4:54 PM,57.9,39.9,51,30.31,10.0,ESE,6.9,-,N/A,,Overcast,110,2013-02-10 21:54:00
5:54 PM,55.9,42.1,60,30.29,10.0,ESE,5.8,-,N/A,,Overcast,110,2013-02-10 22:54:00
6:54 PM,55.0,44.1,67,30.29,10.0,SE,6.9,-,N/A,,Overcast,130,2013-02-10 23:54:00
7:54 PM,53.1,44.1,71,30.28,10.0,SE,6.9,-,N/A,,Mostly Cloudy,130,2013-02-11 00:54:00
8:54 PM,52.0,44.1,74,30.28,10.0,SE,11.5,-,N/A,,Overcast,130,2013-02-11 01:54:00
9:54 PM,51.1,45.0,80,30.30,10.0,SE,4.6,-,N/A,,Mostly Cloudy,130,2013-02-11 02:54:00
10:54 PM,51.1,45.0,80,30.31,10.0,NE,3.5,-,N/A,,Overcast,40,2013-02-11 03:54:00
11:54 PM,50.0,46.9,89,30.27,7.0,SE,9.2,-,0.02,Rain,Light Rain,130,2013-02-11 04:54:00